Location: New Canada
(47.1017°N, 68.5042°W)
Time: 08:50:12
(UTC+00:00)

EO-79 - Pass Details

Date: 04 April 2023
Orbit: 578 x 593 km, 98.0° (Epoch: 02 June)

Event Time Altitude Azimuth Distance (km) Brightness Sun altitude
Rises 06:12:04 0° 21° (NNE) 2,826 ? -33.3°
Reaches altitude 10° 06:14:25 10° 31° (NNE) 1,917 ? -33.1°
Enters shadow 06:16:14 22° 49° (NE) 1,307 ? -32.9°
